sat.trackr.live / text

‹ back to catalog

STARLINK-4007

NORAD 52707 · 2022-053BD

PAYLOAD ACTIVE UNKNOWN

§ Identity

Operator
Country
US
Launch date
2022-05-18
Launch site
AFETR
Launch vehicle
Mass (kg)
RCS (m²)

Purposes: comms

External: N2YO · Heavens-Above · Gunter

§ Orbital elements

Epoch: 2026-09-19T16:52:09.487776Z

Period
95.15 min
Inclination
53.2174°
Eccentricity
0.0001856
Mean motion
15.13466589 rev/d
Perigee alt
524.4 km
Apogee alt
526.9 km
Semi-major
6,903.8 km
B*
6.7016e-4
RAAN
340.5280°
Arg perigee
48.7391°
Mean anomaly
311.3763°
Rev number
24,070

§ Raw data

STARLINK-40071 52707U 22053BD  26262.70288759  .00011844  00000+0  67016-3 0  99972 52707  53.2174 340.5280 0001856  48.7391 311.3763 15.13466589240704

JSON: /api/v1/satellites/52707 · /tle

For live sub-satellite position, see the globe view (requires WebGL).

§ Visibility from observer

Set your observer location to see the next 7 days of passes ≥ 10°. The values pass through the URL so the page stays shareable.

No JS? Fill the form by hand. The geolocation button needs JavaScript.